SCP
0 0 0 0 0 0 0 0 0 0 0 0 0 0 0 0 0 0 0 0 0 0 0 0 0 0 0 0 0 0 0 0 0 0 0 0 0 0 0 0 0 0 0
0 0 0 0 0 0 0 0 0 0 0 0 0 0 0 0 0 0 0 0 0 0 0 0 0 0 0 0 0 0 0 0 0 0 0 0 0 0 0 0 0 0 0
0 0 0 0 0 0 0 0 0 0 0 0 0 0 0 0 0 0 0 0 0 0 0 0 0 0 0 0 0 0 0 0 0 0 0 0 0 0 0 0 0 0 0
0 0 0 0 0 0 0 0 0 0 0 0 0 0 0 0 0 0 0 0 0 0 0 0 0 0 0 0 0 0 0 0 0 0 0 0 0 0 0 0 0 0 0
0 0 0 0 0 0 0 0 0 0 0 0 0 0 0 0 0 0 0 0 0 0 0 0 0 0 0 0 0 0 0 0 0 0 0 0 0 0 0 0 0 0 0
0 0 0 0 0 0 0 0 0 0 0 0 0 0 0 0 0 0 0 0 0 0 0 0 0 0 0 0 0 0 0 0 0 0 0 0 0 0 0 0 0 0 0
0 0 0 0 0 0 0 0 0 0 0 0 0 0 0 0 0 0 0 0 0 0 0 0 0 0 0 0 0 0 0 0 0 0 0 0 0 0 0 0 0 0 0
0 0 0 0 0 0 0 0 0 0 0 0 0 0 0 0 0 0 0 0 0 0 0 0 0 0 0 0 0 0 0 0 0 0 0 0 0 0 0 0 0 0 0
0 0 0 0 0 0 0 0 0 0 0 0 0 0 0 0 0 0 0 0 0 0 0 0 0 0 0 0 0 0 0 0 0 0 0 0 0 0 0 0 0 0 0
0 0 0 0 0 0 0 0 0 0 0 0 0 0 0 0 0 0 0 0 0 0 0 0 0 0 0 0 0 0 0 0 0 0 0 0 0 0 0 0 0 0 0
0 0 0 0 0 0 0 0 0 0 0 0 0 0 0 0 0 0 0 0 0 0 0 0 0 0 0 0 0 0 0 0 0 0 0 0 0 0 0 0 0 0 0
1 1 0 0 0 0 0 0 0 0 0 0 0 0 0 0 0 0 0 0 0 0 0 0 0 0 0 0 0 0 0 0 0 0 0 0 0 0 0 0 0 0 0
1 1 1 1 1 0 0 0 0 0 0 0 0 0 0 0 0 0 0 0 0 0 0 0 0 0 0 0 0 0 0 0 0 0 0 0 0 0 0 0 0 0 0
1 1 1 1 1 1 0 0 0 0 0 0 0 0 0 0 0 0 0 0 0 0 0 0 0 0 0 0 0 0 0 0 0 0 0 0 0 0 0 0 0 0 0
1 1 1 1 0 0 0 0 0 0 0 0 0 0 0 0 0 0 0 0 0 0 0 0 0 0 0 0 0 0 0 0 0 0 0 0 0 0 0 0 0 0 0
0 0 0 0 0 0 0 0 0 0 0 0 0 0 0 0 0 0 0 0 0 0 0 0 0 0 0 0 0 0 0 0 0 0 0 0 0 0 0 0 0 0 0
0 0 0 0 0 0 0 0 0 0 0 0 0 0 0 0 0 0 0 0 0 0 0 0 0 0 0 0 0 0 0 0 0 0 0 0 0 0 0 0 0 0 0
0 0 0 0 0 0 0 0 0 0 0 0 0 0 0 0 0 0 0 0 0 0 0 0 0 0 0 0 0 0 0 0 0 0 0 0 0 0 0 0 0 0 0
0 0 0 0 0 0 0 0 0 0 0 0 0 0 0 0 0 0 0 0 0 0 0 0 0 0 0 0 0 0 0 0 0 0 0 0 0 0 0 0 0 0 0
0 0 0 0 0 0 0 0 0 0 0 0 0 0 0 0 0 0 0 0 0 0 0 0 0 0 0 0 0 0 0 0 0 0 0 0 0 0 0 0 0 0 0
0 0 0 0 0 0 0 0 0 0 0 0 0 0 0 0 0 0 0 0 0 0 0 0 0 0 0 0 0 0 0 0 0 0 0 0 0 0 0 0 0 0 0
0 0 0 0 0 0 0 0 0 0 0 0 0 0 0 0 0 0 0 0 0 0 0 0 0 0 0 0 0 0 0 0 0 0 0 0 0 0 0 0 0 0 0
0 0 0 0 0 0 0 0 0 0 0 0 0 0 0 0 0 0 0 0 0 0 0 0 0 0 0 0 0 0 0 0 0 0 0 0 0 0 0 0 0 0 0
1 1 0 0 0 0 0 0 0 0 0 0 0 0 0 0 0 0 0 0 0 0 0 0 0 0 0 0 0 0 0 0 0 0 0 0 0 0 0 0 0 0 0
1 1 1 0 0 0 0 0 0 0 0 0 0 0 0 0 0 0 0 0 0 0 0 0 0 0 0 0 0 0 0 0 0 0 0 0 0 0 0 0 0 0 0
1 1 1 0 0 0 0 0 0 0 0 0 0 0 0 0 0 0 0 0 0 0 0 0 0 0 0 0 0 0 0 0 0 0 0 0 0 0 0 0 0 0 0
Wind_Speed
1 2 1 1 1 2 2 2 1 2 2 2 2 2 2 2 2 2 5 8 5 4 3 3 4 5 5 5 5 6 6 5 5 5 5 5 5 5 5 6 6 6 6
1 1 2 2 1 1 1 1 2 2 1 1 2 2 2 2 2 1 3 7 6 4 3 3 4 5 5 5 5 5 5 5 5 5 5 5 5 5 5 5 7 7 7
2 2 2 2 2 1 2 1 2 2 2 2 2 2 2 2 2 2 2 2 5 6 5 5 5 4 4 4 4 5 5 5 5 5 6 5 4 5 5 5 6 7 7
3 3 2 2 2 2 2 2 2 2 2 2 2 2 2 3 3 2 2 2 2 3 6 6 5 4 4 4 4 4 4 4 5 5 5 6 5 5 5 5 6 6 7
3 3 2 1 3 2 2 2 2 2 2 2 2 2 2 2 3 2 2 1 2 2 2 7 6 4 4 4 4 4 4 4 5 5 5 6 5 5 5 5 6 6 6
3 3 3 2 3 2 2 2 2 2 2 2 2 2 1 2 2 2 2 2 2 2 2 3 4 5 5 4 4 4 4 4 4 5 5 6 6 6 5 5 5 6 6
3 3 2 3 3 2 2 3 3 4 3 2 3 2 2 2 2 2 2 1 2 2 2 2 1 1 4 6 4 3 3 4 4 5 5 5 5 6 6 6 5 5 5
4 4 3 3 3 2 3 3 3 3 3 3 3 3 3 4 3 3 2 2 2 2 3 3 2 1 0 3 5 4 2 3 4 5 6 6 6 6 5 5 6 5 5
4 4 4 4 3 4 3 3 4 4 3 3 2 2 2 2 3 4 3 2 2 2 2 3 3 2 2 1 3 5 3 3 4 5 5 6 6 6 6 5 5 6 6
4 4 4 4 3 3 3 4 4 3 3 3 3 2 2 1 2 3 4 4 3 2 2 1 2 3 2 2 2 4 4 3 3 4 5 5 5 6 6 5 5 5 6
4 4 4 4 4 3 3 3 3 3 3 3 2 3 3 2 3 2 3 4 4 3 2 2 1 1 2 2 2 4 5 4 3 3 4 5 5 5 6 6 6 6 5
4 4 4 4 4 3 3 4 3 4 2 2 2 2 2 2 3 3 2 3 3 3 3 2 2 2 2 2 2 5 5 5 4 3 3 3 4 5 5 5 6 6 6
3 4 4 4 3 3 3 3 3 3 3 3 3 3 2 2 2 2 2 3 3 3 3 3 3 2 2 2 3 5 6 5 4 4 4 3 3 4 4 5 6 6 6
2 3 4 4 4 4 4 3 4 4 3 4 4 3 3 3 2 2 2 3 3 3 4 3 2 2 2 2 3 5 5 7 5 4 4 4 4 4 4 4 5 5 5
2 4 4 4 4 4 4 4 3 3 4 5 5 5 4 3 3 3 3 3 4 4 3 3 3 3 2 2 3 3 3 7 6 5 5 4 4 5 5 5 4 5 5
3 4 4 4 4 4 4 4 4 3 4 4 3 3 4 3 3 3 3 3 3 4 3 2 2 2 2 2 4 4 3 7 8 7 6 5 5 5 6 5 5 5 5
4 5 5 5 4 4 4 4 4 4 5 4 4 5 5 4 3 3 3 3 3 3 4 3 2 2 3 4 2 4 4 5 5 9 7 6 6 6 6 6 6 6 6
5 5 5 5 5 5 4 5 5 5 5 5 5 5 5 4 4 4 3 3 3 3 4 4 3 3 3 4 3 5 4 4 4 9 9 8 8 7 7 7 7 7 7
4 5 5 5 5 5 5 5 5 5 5 5 5 5 5 4 4 3 4 3 3 3 3 4 4 2 3 3 4 5 4 3 5 6 10 11 10 9 9 8 8 8 8
5 5 5 5 5 5 5 5 5 5 5 5 5 5 5 4 4 4 4 4 4 4 4 4 4 3 3 3 4 4 4 4 4 4 4 5 8 11 11 10 10 10 10
5 5 5 5 5 5 4 4 5 5 5 5 5 5 5 4 3 3 4 3 4 4 4 4 4 4 3 3 4 4 4 3 4 4 4 5 6 7 8 11 12 11 10
4 4 5 5 5 3 2 2 4 5 5 5 5 5 5 6 5 5 5 5 5 5 5 5 4 4 4 5 4 4 4 4 4 3 4 5 5 5 6 6 8 10 11
3 4 4 4 4 3 4 3 4 5 5 4 4 5 5 3 5 6 6 7 8 8 7 7 7 6 5 5 4 6 5 5 5 3 4 6 5 6 6 5 9 10 11
3 3 3 4 4 3 5 5 5 6 5 5 5 4 4 3 3 4 5 6 7 7 7 8 7 7 6 4 5 6 6 6 7 6 5 6 5 5 5 4 10 11 11
3 3 3 3 3 2 5 5 5 5 4 5 5 5 5 5 2 2 6 6 6 6 6 7 6 5 4 5 5 5 6 6 6 5 4 5 5 5 5 5 6 12 12
3 3 3 3 3 3 4 5 6 5 4 5 5 5 4 4 2 4 6 6 7 6 5 4 5 6 7 7 9 8 7 6 6 5 4 4 5 4 5 4 4 4 7
Wind_Direction
169 156 151 155 162 156 162 156 148 139 160 154 152 138 137 117 120 115 118 123 124 123 127 149 161 164 164 161 161 158 157 157 158 165 163 163 169 173 174 173 170 165 162
158 185 172 175 167 167 130 152 137 155 157 128 137 138 147 131 125 145 127 132 132 123 116 135 157 158 161 161 160 161 166 169 169 167 167 166 166 169 171 174 173 169 168
169 198 196 194 174 168 160 168 159 162 166 160 153 156 156 152 142 143 140 139 139 137 126 123 125 132 139 147 152 155 158 162 161 162 165 165 165 166 171 174 172 173 172
195 205 203 186 174 187 181 176 189 172 161 172 147 162 154 154 153 158 160 146 130 134 137 128 123 127 133 145 153 157 164 166 166 169 172 169 166 167 167 170 170 169 165
200 207 202 161 200 190 191 205 159 192 177 181 166 170 167 155 154 160 155 154 129 134 134 134 137 136 143 153 159 160 161 164 169 173 171 170 169 167 162 163 167 167 169
202 218 191 181 209 186 188 194 190 207 203 196 185 150 157 150 159 155 180 160 148 158 156 138 158 155 154 154 156 161 166 171 170 174 176 173 171 166 162 163 165 165 171
197 216 214 179 212 185 197 197 201 189 191 191 181 166 159 154 154 162 183 183 162 161 158 155 183 161 154 158 156 160 169 179 177 178 177 173 169 168 170 170 168 170 177
204 207 215 208 203 193 194 194 202 209 192 196 208 193 183 171 180 175 175 177 178 172 166 161 148 140 194 146 134 154 155 169 178 178 179 179 176 170 168 173 177 176 176
203 217 206 217 206 209 186 196 207 215 205 200 224 239 225 201 168 158 172 170 173 184 178 160 165 157 184 148 140 149 165 177 177 184 185 181 178 177 178 176 176 182 182
204 204 203 203 214 214 181 202 198 214 217 204 194 236 277 327 253 167 172 168 172 182 182 198 176 164 178 181 129 100 134 153 170 183 182 175 176 185 189 188 185 190 195
197 198 200 197 202 208 188 203 192 217 214 223 214 201 206 211 242 247 182 173 177 175 180 192 204 193 177 189 184 119 134 145 150 157 172 177 182 189 190 192 193 198 202
189 193 198 194 200 204 194 203 200 195 214 223 233 223 213 220 220 226 216 205 192 172 182 186 204 202 199 192 152 113 139 149 151 152 154 164 180 190 196 202 205 205 208
182 186 196 193 196 201 201 206 202 206 206 210 219 221 223 234 252 244 240 226 216 191 186 200 198 206 205 182 142 138 156 160 163 167 171 177 187 196 203 210 212 210 210
187 173 189 190 193 195 197 200 208 204 205 213 219 223 229 225 233 239 244 246 236 219 196 196 186 199 209 193 128 188 172 163 173 183 190 194 198 204 206 209 211 212 213
183 172 182 187 190 194 200 200 209 211 209 212 208 207 227 219 228 235 245 254 262 253 225 190 205 183 216 205 157 206 206 157 182 193 197 202 206 210 214 217 215 211 214
184 174 180 191 195 197 199 206 205 209 214 213 215 217 227 226 223 230 240 246 258 268 268 232 216 188 218 240 179 219 225 172 193 195 198 207 214 217 218 217 217 214 214
196 192 188 191 199 202 201 205 215 211 215 217 219 216 222 229 232 234 236 240 250 256 254 252 224 189 209 245 213 230 225 219 192 184 195 207 216 220 222 222 221 219 218
205 197 195 196 202 206 206 207 216 215 218 219 222 226 226 219 227 243 244 245 244 252 252 255 245 221 217 226 226 233 229 225 228 171 191 206 215 219 221 224 223 223 224
202 199 195 200 206 208 209 212 218 221 225 227 223 224 224 224 233 239 248 247 242 239 251 251 247 234 224 221 227 230 230 235 243 186 192 203 210 217 219 221 222 223 223
200 199 195 201 206 210 212 216 221 227 233 233 227 223 222 224 229 236 237 244 254 254 245 247 244 234 223 212 229 233 228 222 241 232 214 216 206 211 218 219 220 222 223
199 197 200 200 203 207 211 224 231 230 233 236 232 229 224 222 236 249 259 250 252 258 254 251 249 242 229 221 235 245 247 241 231 238 239 230 215 222 215 214 217 219 221
200 201 202 202 205 206 158 211 250 240 236 236 239 238 227 209 210 223 247 259 259 254 262 266 259 252 244 240 242 251 258 254 252 227 249 250 241 240 237 231 191 196 212
186 199 206 205 206 186 159 196 237 245 241 236 234 239 245 229 221 233 223 226 236 239 244 261 270 268 262 249 247 247 246 256 268 266 253 256 246 247 244 217 176 195 210
183 193 204 209 214 181 165 198 232 233 242 241 233 229 240 241 243 256 249 244 245 237 233 238 254 261 265 264 242 249 253 248 254 244 237 258 256 255 257 236 181 198 211
197 198 196 202 215 184 170 192 222 234 235 242 240 231 231 238 206 244 254 251 253 250 232 232 253 267 279 249 242 246 242 245 251 244 223 253 265 268 260 248 200 195 211
204 211 198 204 215 211 168 188 218 242 241 244 237 229 214 238 201 211 248 255 256 262 265 243 232 230 233 222 215 230 241 246 256 254 210 234 258 268 264 244 229 201 212